Regional Weather Roundup
Issued by NWS Burlington, VT

Home | Current Version | Previous Version | Text Only | Print | Product List | Glossary On
Versions: 1 2 3 4 5 6 7 8 9 10 11 12 13 14 15 16 17 18 19 20 21 22 23 24 25 26 27 28 29 30 31 32 33 34 35 36 37 38 39 40 41 42 43 44 45 46 47 48 49 50
000
ASUS41 KBTV 271030
RWRBTV
VERMONT REGIONAL WEATHER ROUNDUP
NATIONAL WEATHER SERVICE BURLINGTON VT
500 AM EST THU NOV 27 2014

NOTE: "FAIR" INDICATES FEW OR NO CLOUDS BELOW 12,000 FEET WITH NO
SIGNIFICANT WEATHER AND/OR OBSTRUCTIONS TO VISIBILITY.

* THESE REPORTS ARE NOT UNDER NWS QUALITY CONTROL AND/OR DO NOT
  REPORT WEATHER SUCH AS PRECIPITATION AND FOG.

VTZ001>019-271100-
_____VERMONT_____


CITY           SKY/WX    TMP DP  RH WIND       PRES   REMARKS
BURLINGTON     FLURRIES  27  23  85 N12       29.95R WCI  17
MONTPELIER     LGT SNOW  26  25  96 N7        29.89R FOG
MORRISVILLE    LGT SNOW  27  23  85 N7        29.91R FOG
ST. JOHNSBURY*   N/A     28  24  85 MISG      29.84S
LYNDONVILLE*   LGT SNOW  26  20  79 NW7       29.85R
MIDDLEBURY*    CLOUDY    28  28 100 N5        29.92R
RUTLAND*       CLOUDY    27  25  93 N9        29.89R
HIGHGATE*      CLOUDY    26  23  89 N6        29.97R
NEWPORT*       LGT SNOW  24  22  90 N13       29.89S WCI  13
BENNINGTON     CLOUDY    28  24  85 NW7       29.88R
SUTTON*          N/A     23 N/A N/A MISG        N/A
GALLUP MILLS*    N/A     25 N/A N/A MISG        N/A
UNION VILLAGE*   N/A     27 N/A N/A MISG        N/A

_____LAKE CHAMPLAIN_____


CITY           SKY/WX    TMP DP  RH WIND       PRES   REMARKS
BURTON ISLAND*   N/A     30  28  93 N1          N/A
COLCHESTER RF*   N/A     32  28  86 N23         N/A
DIAMOND ISL*     N/A     30  27  86 NW16        N/A  WCI  19

$$

NYZ007-026>031-035-052-083-271100-
_____NORTHERN NEW YORK_____


CITY           SKY/WX    TMP DP  RH WIND       PRES   REMARKS
PLATTSBURGH    CLOUDY    27  24  89 N15       29.97S WCI  15
SARANAC LAKE   CLOUDY    23  32 100 NE5       29.87S
MASSENA        CLOUDY    28  21  75 N5        30.02S
OGDENSBURG*    CLOUDY    28  23  80 N6        30.02R
POTSDAM*       CLOUDY    28  25  86 N3        29.99R
STARK FALLS*     N/A     25 N/A N/A N1          N/A
WATERTOWN      CLOUDY    29  19  66 N10       30.02R WCI  20
FT DRUM        CLOUDY    26  22  87 N6        29.99R
ALBANY         FLURRIES  30  26  85 NW7       29.95R
GLENS FALLS    CLOUDY    30  27  88 CALM      29.93R

$$
NHZ002-005-011-271100-
_____NEW HAMPSHIRE_____


CITY           SKY/WX    TMP DP  RH WIND       PRES   REMARKS
LEBANON        CLOUDY    30  25  81 NW5       29.85R
KEENE            N/A    N/A N/A N/A MISG        N/A
MT WASHINGTON  SNOW      14  14 100 N39         N/A  VSB 1/16WCI  -9
PLYMOUTH       CLOUDY    31  29  93 W10G21    29.81R
WHITEFIELD     LGT SNOW  26  22  84 NW7       29.83R FOG

$$

_____REGIONAL QUEBEC LOCATIONS_____


CITY           SKY/WX    TMP DP  RH WIND       PRES   REMARKS
MONTREAL       CLOUDY    28  18  64 N12       30.00S WCI  18
QUEBEC CITY    CLOUDY    27  14  59 N7        29.96F
SHERBROOKE     LGT SNOW  25  23  93 NW5       29.89F

_____REGIONAL ONTARIO LOCATIONS_____


CITY           SKY/WX    TMP DP  RH WIND       PRES   REMARKS
OTTAWA         CLOUDY    25  18  74 N10       30.03S WCI  15

______KEY______
VSB  - VISIBILITY IN MILES
WCI  - WIND CHILL INDEX
HX   - HEAT INDEX
$$
NNNN


USA.gov is the U.S. government's official web portal to all federal, state and local government web resources and services.